This is the latest recevied weather packets stored in our database for station/object OK2ILA-3. If no packets are shown the sender has not sent any weather packets the latest 10 day(s).
| Time | Temp. | Humidity | Pressure | Rain* | Wind** | Luminosity | Snow |
|---|---|---|---|---|---|---|---|
| 1777886021 | 21.11° C | 96% | 0.9 hPa | 0 mm | - | - | - |
| 1777885486 | 21.11° C | 77% | 0 hPa | 22.35 mm | - | - | - |
| 1777885482 | 20.56° C | 12% | 5734.9 hPa | 0 mm | - | - | - |
| 1777885414 | 21.11° C | 77% | 0 hPa | 22.35 mm | - | - | - |
| 1777884808 | 20.56° C | 12% | 5734.9 hPa | 0 mm | - | - | - |
| 1777884204 | 21.67° C | 3% | 5734.9 hPa | 0 mm | - | - | - |
| 1777883599 | 21.11° C | 4% | 4919.4 hPa | 0 mm | - | - | - |
| 1777882991 | 21.11° C | 82% | 4919.4 hPa | 0 mm | - | - | - |
| 1777882385 | 19.44° C | 10% | 4919.4 hPa | 0 mm | - | - | - |
| 1777881820 | 19.44° C | 77% | 4919.4 hPa | 0 mm | - | - | - |
| 1777881781 | 19.44° C | 77% | 4919.4 hPa | 0 mm | - | - | - |
| 1777881174 | 20° C | 100% | 4919.4 hPa | 0 mm | - | - | - |
| 1777880565 | 20° C | 77% | 7 hPa | 0 mm | - | - | - |
| 1777879998 | 20° C | 85% | 7 hPa | 0 mm | - | - | - |
| 1777879962 | 20° C | 85% | 7 hPa | 0 mm | - | - | - |
| 1777879355 | 18.89° C | 100% | 10.4 hPa | 0 mm | - | - | - |
| 1777878750 | 19.44° C | 77% | 0.5 hPa | 0 mm | - | - | - |
| 1777878147 | 18.33° C | - | - | 26.67 mm | - | - | - |
| 1777877647 | 18.33° C | 100% | 0.5 hPa | 0 mm | - | - | - |
| 1777877646 | 18.33° C | 100% | 0.5 hPa | 0 mm | - | - | - |
| 1777877538 | 18.33° C | 100% | 0.5 hPa | 0 mm | - | - | - |
| 1777876934 | 18.33° C | 100% | 0.5 hPa | 0 mm | - | - | - |
| 1777876329 | 18.33° C | 4% | 0.5 hPa | 0 mm | - | - | - |
| 1777875722 | 16.67° C | 9% | 0.5 hPa | 0 mm | - | - | - |
| 1777875679 | 16.67° C | 12% | 0.5 hPa | 0 mm | - | - | - |
* Rain latest 24 hours (hover to see other rain measurements)
** Current wind speed in m/s (hover to see current wind gust speed)